When you browse on this site, cookies collect data to enhance your experience and personalize the content and advertising you see.
Visit our Privacy Policy to learn more. By continuing to use the site, you agree to this use of cookies and data.
  • In Hungary
  • List of Countries
  • For 7 days
  • Water Temperature
  • Satellite Maps
  • Weather Map
  • News
  • Weather Widgets
  • user-avatar
    Login

    Hourly Weather Juegangzhen

    Today, 24 February, Sunday

    Time Temperature Precipitation Wind Pressure Humidity
    00:00 +5°C° 0 mm 2 mps 768 mmHg 67%
    01:00 +4°C° 0 mm 2 mps 768 mmHg 69%
    02:00 +4°C° 0 mm 2 mps 768 mmHg 71%
    03:00 +3°C° 0 mm 2 mps 768 mmHg 72%
    04:00 +3°C° 0 mm 2 mps 768 mmHg 72%
    05:00 +3°C° 0 mm 2 mps 768 mmHg 73%
    06:00 +4°C° 0 mm 2 mps 768 mmHg 72%
    07:00 +5°C° 0 mm 2 mps 768 mmHg 70%
    08:00 +5°C° 0 mm 2 mps 768 mmHg 70%
    09:00 +7°C° 0 mm 2 mps 768 mmHg 64%
    10:00 +8°C° 0 mm 2 mps 768 mmHg 58%
    11:00 +10°C° 0 mm 2 mps 768 mmHg 53%
    12:00 +10°C° 0 mm 3 mps 767 mmHg 51%
    13:00 +11°C° 0 mm 3 mps 767 mmHg 50%
    14:00 +12°C° 0 mm 3 mps 766 mmHg 48%
    15:00 +11°C° 0 mm 3 mps 766 mmHg 53%
    16:00 +10°C° 0 mm 3 mps 766 mmHg 58%
    17:00 +8°C° 0 mm 4 mps 766 mmHg 63%
    18:00 +8°C° 0 mm 3 mps 766 mmHg 66%
    19:00 +7°C° 0 mm 3 mps 766 mmHg 69%
    20:00 +6°C° 0 mm 2 mps 766 mmHg 72%
    21:00 +5°C° 0 mm 2 mps 766 mmHg 74%
    22:00 +6°C° 0 mm 1 mps 767 mmHg 75%
    23:00 +6°C° 0 mm 1 mps 767 mmHg 76%

    Tomorrow, 25 February, Monday

    Time Temperature Precipitation Wind Pressure Humidity
    00:00 +6°C° 0 mm 1 mps 767 mmHg 77%
    01:00 +6°C° 0 mm 1 mps 766 mmHg 78%
    02:00 +5°C° 0 mm 1 mps 766 mmHg 79%
    03:00 +5°C° 0 mm 1 mps 766 mmHg 80%
    04:00 +4°C° 0 mm 2 mps 766 mmHg 82%
    05:00 +4°C° 0 mm 2 mps 766 mmHg 83%
    06:00 +5°C° 0 mm 2 mps 766 mmHg 81%
    07:00 +6°C° 0 mm 2 mps 767 mmHg 79%
    08:00 +7°C° 0 mm 2 mps 767 mmHg 77%
    09:00 +8°C° 0 mm 2 mps 767 mmHg 72%
    10:00 +10°C° 0 mm 3 mps 767 mmHg 67%
    11:00 +11°C° 0 mm 3 mps 768 mmHg 62%
    12:00 +11°C° 0 mm 3 mps 767 mmHg 62%
    13:00 +12°C° 0 mm 3 mps 767 mmHg 62%
    14:00 +12°C° 0 mm 4 mps 767 mmHg 63%
    15:00 +11°C° 0 mm 4 mps 767 mmHg 67%
    16:00 +11°C° 0 mm 4 mps 767 mmHg 71%
    17:00 +10°C° 0 mm 4 mps 767 mmHg 75%
    18:00 +8°C° 0 mm 4 mps 767 mmHg 77%
    19:00 +7°C° 0 mm 4 mps 767 mmHg 80%
    20:00 +6°C° 0 mm 4 mps 768 mmHg 82%
    21:00 +7°C° 0 mm 3 mps 768 mmHg 81%
    22:00 +7°C° 0 mm 3 mps 768 mmHg 80%
    23:00 +5°C° 0 mm 3 mps 768 mmHg 79%

    Day after tomorrow, 26 February, Tuesday

    Time Temperature Precipitation Wind Pressure Humidity
    00:00 +5°C° 0 mm 3 mps 768 mmHg 81%
    01:00 +5°C° 0 mm 3 mps 768 mmHg 82%
    02:00 +5°C° 0 mm 3 mps 769 mmHg 84%
    03:00 +5°C° 0 mm 3 mps 768 mmHg 84%
    04:00 +5°C° 0 mm 4 mps 768 mmHg 85%
    05:00 +5°C° 0 mm 4 mps 768 mmHg 86%
    06:00 +5°C° 0 mm 4 mps 768 mmHg 82%
    07:00 +6°C° 0 mm 5 mps 768 mmHg 78%
    08:00 +7°C° 0 mm 5 mps 769 mmHg 74%
    09:00 +8°C° 0 mm 5 mps 769 mmHg 69%
    10:00 +9°C° 0 mm 5 mps 769 mmHg 64%
    11:00 +12°C° 0 mm 5 mps 769 mmHg 59%
    12:00 +12°C° 0 mm 5 mps 769 mmHg 58%
    13:00 +12°C° 0 mm 5 mps 768 mmHg 57%
    14:00 +11°C° 0 mm 6 mps 767 mmHg 56%
    15:00 +10°C° 0 mm 6 mps 767 mmHg 59%
    16:00 +9°C° 0 mm 6 mps 767 mmHg 63%
    17:00 +8°C° 0 mm 6 mps 767 mmHg 66%
    18:00 +8°C° 0 mm 6 mps 767 mmHg 68%
    19:00 +8°C° 0 mm 5 mps 767 mmHg 70%
    20:00 +7°C° 0 mm 5 mps 767 mmHg 72%
    21:00 +7°C° 0 mm 5 mps 767 mmHg 73%
    22:00 +7°C° 0 mm 5 mps 767 mmHg 75%
    23:00 +7°C° 0 mm 5 mps 767 mmHg 76%

    27 February, Wednesday

    Time Temperature Precipitation Wind Pressure Humidity
    00:00 +7°C° 0 mm 5 mps 767 mmHg 78%
    01:00 +7°C° 0 mm 5 mps 766 mmHg 79%
    02:00 +7°C° 0 mm 5 mps 766 mmHg 81%
    03:00 +7°C° 0.1 mm 6 mps 765 mmHg 82%
    04:00 +7°C° 0.1 mm 6 mps 765 mmHg 82%
    05:00 +7°C° 0.1 mm 6 mps 764 mmHg 83%
    06:00 +7°C° 0.2 mm 6 mps 764 mmHg 83%
    07:00 +7°C° 0.2 mm 6 mps 764 mmHg 82%
    08:00 +8°C° 0.2 mm 7 mps 765 mmHg 82%
    09:00 +8°C° 0.3 mm 6 mps 764 mmHg 83%
    10:00 +8°C° 0.3 mm 6 mps 764 mmHg 84%
    11:00 +8°C° 0.3 mm 6 mps 764 mmHg 86%
    12:00 +8°C° 0.8 mm 6 mps 763 mmHg 86%
    13:00 +8°C° 0.8 mm 6 mps 762 mmHg 87%
    14:00 +8°C° 0.8 mm 6 mps 761 mmHg 88%
    15:00 +8°C° 2.1 mm 7 mps 761 mmHg 89%
    16:00 +7°C° 2.1 mm 8 mps 761 mmHg 91%
    17:00 +7°C° 2.1 mm 8 mps 761 mmHg 92%
    18:00 +7°C° 0.7 mm 8 mps 762 mmHg 92%
    19:00 +7°C° 0.7 mm 8 mps 762 mmHg 91%
    20:00 +6°C° 0.7 mm 7 mps 762 mmHg 91%
    21:00 +6°C° 0.5 mm 7 mps 762 mmHg 90%
    22:00 +6°C° 0.5 mm 7 mps 762 mmHg 90%
    23:00 +6°C° 0.5 mm 7 mps 763 mmHg 90%

    28 February, Thursday

    Time Temperature Precipitation Wind Pressure Humidity
    00:00 +6°C° 0.1 mm 7 mps 762 mmHg 90%
    01:00 +7°C° 0.1 mm 6 mps 762 mmHg 90%
    02:00 +7°C° 0.1 mm 6 mps 762 mmHg 90%
    03:00 +7°C° 0 mm 6 mps 762 mmHg 89%
    04:00 +7°C° 0 mm 5 mps 763 mmHg 88%
    05:00 +7°C° 0 mm 5 mps 763 mmHg 88%
    06:00 +7°C° 0 mm 5 mps 763 mmHg 86%
    07:00 +7°C° 0 mm 5 mps 764 mmHg 85%
    08:00 +8°C° 0 mm 5 mps 764 mmHg 83%
    09:00 +9°C° 0 mm 5 mps 765 mmHg 79%
    10:00 +11°C° 0 mm 4 mps 765 mmHg 75%
    11:00 +12°C° 0 mm 4 mps 765 mmHg 70%
    12:00 +12°C° 0 mm 5 mps 765 mmHg 71%
    13:00 +12°C° 0 mm 5 mps 765 mmHg 71%
    14:00 +12°C° 0 mm 5 mps 764 mmHg 71%
    15:00 +10°C° 0 mm 5 mps 764 mmHg 72%
    16:00 +11°C° 0 mm 4 mps 765 mmHg 74%
    17:00 +10°C° 0 mm 4 mps 765 mmHg 76%
    18:00 +9°C° 0 mm 3 mps 765 mmHg 80%
    19:00 +8°C° 0 mm 3 mps 766 mmHg 83%
    20:00 +7°C° 0 mm 2 mps 766 mmHg 87%
    21:00 +7°C° 0 mm 2 mps 766 mmHg 87%
    22:00 +7°C° 0 mm 2 mps 767 mmHg 87%
    23:00 +7°C° 0 mm 2 mps 767 mmHg 88%

    1 March, Friday

    Time Temperature Precipitation Wind Pressure Humidity
    00:00 +7°C° 0 mm 2 mps 766 mmHg 87%
    01:00 +6°C° 0 mm 2 mps 766 mmHg 87%
    02:00 +6°C° 0 mm 2 mps 766 mmHg 87%
    03:00 +5°C° 0 mm 3 mps 766 mmHg 86%
    04:00 +5°C° 0 mm 3 mps 766 mmHg 84%
    05:00 +5°C° 0 mm 4 mps 765 mmHg 83%
    06:00 +6°C° 0 mm 5 mps 766 mmHg 80%
    07:00 +7°C° 0 mm 5 mps 766 mmHg 76%
    08:00 +8°C° 0 mm 6 mps 766 mmHg 73%
    09:00 +9°C° 0 mm 7 mps 765 mmHg 69%
    10:00 +10°C° 0 mm 7 mps 765 mmHg 66%
    11:00 +11°C° 0 mm 7 mps 764 mmHg 63%
    12:00 +10°C° 0.5 mm 8 mps 764 mmHg 69%
    13:00 +9°C° 0.5 mm 8 mps 763 mmHg 75%
    14:00 +7°C° 0.5 mm 9 mps 762 mmHg 81%
    15:00 +7°C° 4.7 mm 9 mps 762 mmHg 84%
    16:00 +6°C° 4.7 mm 9 mps 762 mmHg 87%
    17:00 +6°C° 4.7 mm 9 mps 762 mmHg 90%
    18:00 +6°C° 1.2 mm 10 mps 763 mmHg 89%
    19:00 +6°C° 1.2 mm 11 mps 763 mmHg 87%
    20:00 +5°C° 1.2 mm 12 mps 763 mmHg 86%
    21:00 +5°C° 0.3 mm 12 mps 762 mmHg 87%
    22:00 +5°C° 0.3 mm 12 mps 761 mmHg 88%
    23:00 +7°C° 0.3 mm 12 mps 760 mmHg 89%
    Show more